Hourly Weather Galonki

Today, 1 August, Sunday

Time Temperature Precipitation Wind Pressure Humidity
00:00 +18°C° 0 mm 2 mps 737 mmHg 72%
01:00 +18°C° 0 mm 2 mps 737 mmHg 69%
02:00 +17°C° 0 mm 2 mps 737 mmHg 69%
03:00 +18°C° 0 mm 1 mps 736 mmHg 68%
04:00 +18°C° 0 mm 1 mps 736 mmHg 68%
05:00 +19°C° 0 mm 1 mps 736 mmHg 65%
06:00 +20°C° 0 mm 1 mps 736 mmHg 61%
07:00 +21°C° 0 mm 1 mps 736 mmHg 58%
08:00 +21°C° 0.3 mm 1 mps 736 mmHg 63%
09:00 +20°C° 0.3 mm 1 mps 736 mmHg 68%
10:00 +19°C° 0.3 mm 2 mps 736 mmHg 73%
11:00 +19°C° 0.3 mm 2 mps 736 mmHg 75%
12:00 +19°C° 0.3 mm 2 mps 735 mmHg 77%
13:00 +19°C° 0.3 mm 2 mps 735 mmHg 79%
14:00 +19°C° 1 mm 3 mps 734 mmHg 82%
15:00 +19°C° 1 mm 4 mps 734 mmHg 84%
16:00 +17°C° 1 mm 5 mps 733 mmHg 86%
17:00 +17°C° 0.4 mm 5 mps 734 mmHg 89%
18:00 +17°C° 0.4 mm 4 mps 734 mmHg 91%
19:00 +17°C° 0.4 mm 4 mps 734 mmHg 93%
20:00 +15°C° 0.1 mm 4 mps 734 mmHg 93%
21:00 +15°C° 0.1 mm 4 mps 734 mmHg 93%
22:00 +15°C° 0.1 mm 4 mps 735 mmHg 94%
23:00 +16°C° 0.1 mm 3 mps 735 mmHg 94%

Tomorrow, 2 August, Monday

Time Temperature Precipitation Wind Pressure Humidity
00:00 +14°C° 0.1 mm 3 mps 735 mmHg 94%
01:00 +14°C° 0.1 mm 3 mps 735 mmHg 94%
02:00 +14°C° 0.1 mm 3 mps 735 mmHg 94%
03:00 +14°C° 0.1 mm 3 mps 735 mmHg 94%
04:00 +14°C° 0.1 mm 3 mps 735 mmHg 94%
05:00 +14°C° 0.3 mm 4 mps 736 mmHg 92%
06:00 +15°C° 0.3 mm 4 mps 736 mmHg 90%
07:00 +15°C° 0.3 mm 4 mps 737 mmHg 88%
08:00 +17°C° 0.5 mm 4 mps 737 mmHg 83%
09:00 +17°C° 0.5 mm 5 mps 737 mmHg 78%
10:00 +19°C° 0.5 mm 5 mps 737 mmHg 73%
11:00 +20°C° 0.5 mm 5 mps 737 mmHg 67%
12:00 +21°C° 0.5 mm 6 mps 738 mmHg 61%
13:00 +23°C° 0.5 mm 6 mps 738 mmHg 55%
14:00 +22°C° 0.2 mm 6 mps 738 mmHg 58%
15:00 +21°C° 0.2 mm 5 mps 738 mmHg 61%
16:00 +21°C° 0.2 mm 5 mps 738 mmHg 65%
17:00 +20°C° 0.2 mm 4 mps 738 mmHg 67%
18:00 +19°C° 0.2 mm 4 mps 739 mmHg 70%
19:00 +18°C° 0.2 mm 3 mps 739 mmHg 73%
20:00 +17°C° 0 mm 3 mps 739 mmHg 74%
21:00 +17°C° 0 mm 2 mps 739 mmHg 75%
22:00 +16°C° 0 mm 2 mps 740 mmHg 77%
23:00 +16°C° 0 mm 3 mps 740 mmHg 77%

Day after tomorrow, 3 August, Tuesday

Time Temperature Precipitation Wind Pressure Humidity
00:00 +16°C° 0 mm 3 mps 740 mmHg 78%
01:00 +16°C° 0 mm 3 mps 740 mmHg 79%
02:00 +14°C° 0 mm 3 mps 740 mmHg 81%
03:00 +13°C° 0 mm 3 mps 741 mmHg 83%
04:00 +13°C° 0 mm 3 mps 741 mmHg 86%
05:00 +14°C° 0 mm 3 mps 741 mmHg 80%
06:00 +16°C° 0 mm 3 mps 741 mmHg 74%
07:00 +17°C° 0 mm 3 mps 742 mmHg 69%
08:00 +19°C° 0 mm 4 mps 742 mmHg 61%
09:00 +20°C° 0 mm 4 mps 742 mmHg 53%
10:00 +22°C° 0 mm 4 mps 742 mmHg 46%
11:00 +22°C° 0 mm 4 mps 742 mmHg 44%
12:00 +24°C° 0 mm 3 mps 741 mmHg 41%
13:00 +25°C° 0 mm 3 mps 741 mmHg 39%
14:00 +25°C° 0 mm 3 mps 741 mmHg 39%
15:00 +25°C° 0 mm 2 mps 741 mmHg 40%
16:00 +25°C° 0 mm 2 mps 740 mmHg 40%
17:00 +24°C° 0 mm 2 mps 740 mmHg 44%
18:00 +23°C° 0 mm 2 mps 740 mmHg 49%
19:00 +21°C° 0 mm 2 mps 740 mmHg 53%
20:00 +21°C° 0 mm 2 mps 740 mmHg 55%
21:00 +20°C° 0 mm 3 mps 740 mmHg 56%
22:00 +19°C° 0 mm 3 mps 740 mmHg 58%
23:00 +18°C° 0.5 mm 2 mps 740 mmHg 67%

4 August, Wednesday

Time Temperature Precipitation Wind Pressure Humidity
00:00 +17°C° 0.5 mm 2 mps 740 mmHg 77%
01:00 +16°C° 0.5 mm 1 mps 741 mmHg 87%
02:00 +16°C° 0.1 mm 1 mps 740 mmHg 87%
03:00 +16°C° 0.1 mm 1 mps 740 mmHg 87%
04:00 +16°C° 0.1 mm 1 mps 740 mmHg 87%
05:00 +18°C° 0 mm 1 mps 740 mmHg 82%
06:00 +19°C° 0 mm 1 mps 740 mmHg 78%
07:00 +20°C° 0 mm 1 mps 740 mmHg 74%
08:00 +20°C° 0 mm 2 mps 740 mmHg 68%
09:00 +23°C° 0 mm 2 mps 740 mmHg 61%
10:00 +24°C° 0 mm 2 mps 740 mmHg 55%
11:00 +25°C° 0 mm 2 mps 740 mmHg 51%
12:00 +25°C° 0 mm 3 mps 740 mmHg 47%
13:00 +26°C° 0 mm 3 mps 740 mmHg 43%
14:00 +26°C° 0 mm 3 mps 740 mmHg 43%
15:00 +26°C° 0 mm 3 mps 740 mmHg 44%
16:00 +25°C° 0 mm 3 mps 740 mmHg 45%
17:00 +24°C° 0 mm 2 mps 740 mmHg 49%
18:00 +23°C° 0 mm 2 mps 739 mmHg 54%
19:00 +21°C° 0 mm 2 mps 739 mmHg 58%
20:00 +22°C° 0 mm 1 mps 739 mmHg 60%
21:00 +21°C° 0 mm 1 mps 740 mmHg 61%
22:00 +20°C° 0 mm 1 mps 740 mmHg 63%
23:00 +20°C° 0 mm 1 mps 739 mmHg 65%

5 August, Thursday

Time Temperature Precipitation Wind Pressure Humidity
00:00 +19°C° 0 mm 1 mps 739 mmHg 67%
01:00 +19°C° 0 mm 1 mps 739 mmHg 68%
02:00 +19°C° 0 mm 1 mps 739 mmHg 69%
03:00 +19°C° 0 mm 1 mps 739 mmHg 69%
04:00 +18°C° 0 mm 1 mps 738 mmHg 70%
05:00 +17°C° 0.1 mm 2 mps 738 mmHg 73%
06:00 +17°C° 0.1 mm 3 mps 738 mmHg 77%
07:00 +17°C° 0.1 mm 3 mps 738 mmHg 80%
08:00 +16°C° 2.2 mm 3 mps 738 mmHg 85%
09:00 +16°C° 2.2 mm 3 mps 738 mmHg 90%
10:00 +16°C° 2.2 mm 3 mps 738 mmHg 95%
11:00 +16°C° 1.6 mm 3 mps 738 mmHg 94%
12:00 +16°C° 1.6 mm 3 mps 738 mmHg 94%
13:00 +16°C° 1.6 mm 2 mps 738 mmHg 94%
14:00 +16°C° 0.2 mm 2 mps 738 mmHg 92%
15:00 +17°C° 0.2 mm 2 mps 738 mmHg 90%
16:00 +17°C° 0.2 mm 2 mps 737 mmHg 89%
17:00 +17°C° 0 mm 2 mps 737 mmHg 90%
18:00 +17°C° 0 mm 2 mps 737 mmHg 91%
19:00 +16°C° 0 mm 2 mps 737 mmHg 91%
20:00 +16°C° 0 mm 2 mps 737 mmHg 93%
21:00 +15°C° 0 mm 1 mps 737 mmHg 95%
22:00 +15°C° 0 mm 1 mps 737 mmHg 96%
23:00 +14°C° 0 mm 2 mps 737 mmHg 96%

6 August, Friday

Time Temperature Precipitation Wind Pressure Humidity
00:00 +14°C° 0 mm 2 mps 737 mmHg 96%
01:00 +14°C° 0 mm 2 mps 737 mmHg 96%
02:00 +14°C° 0 mm 2 mps 737 mmHg 96%
03:00 +14°C° 0 mm 2 mps 737 mmHg 96%
04:00 +14°C° 0 mm 2 mps 736 mmHg 96%
05:00 +15°C° 0 mm 2 mps 737 mmHg 92%
06:00 +16°C° 0 mm 3 mps 737 mmHg 87%
07:00 +17°C° 0 mm 3 mps 737 mmHg 83%
08:00 +18°C° 0 mm 3 mps 737 mmHg 74%
09:00 +20°C° 0 mm 4 mps 738 mmHg 66%
10:00 +21°C° 0 mm 4 mps 738 mmHg 57%
11:00 +22°C° 0 mm 4 mps 738 mmHg 53%
12:00 +23°C° 0 mm 4 mps 738 mmHg 49%
13:00 +25°C° 0 mm 5 mps 738 mmHg 45%
14:00 +25°C° 0 mm 4 mps 738 mmHg 45%
15:00 +25°C° 0 mm 4 mps 737 mmHg 46%
16:00 +25°C° 0 mm 4 mps 737 mmHg 46%
17:00 +24°C° 0 mm 3 mps 737 mmHg 51%
18:00 +23°C° 0 mm 2 mps 738 mmHg 57%
19:00 +21°C° 0 mm 1 mps 738 mmHg 63%
20:00 +21°C° 0 mm 1 mps 738 mmHg 63%
21:00 +21°C° 0 mm 1 mps 738 mmHg 63%
22:00 +20°C° 0 mm 1 mps 738 mmHg 63%
23:00 +19°C° 0 mm 2 mps 738 mmHg 64%
Show more